Regional Weather Roundup
Issued by NWS

Home | Current Version | Previous Version | Text Only | Print | Product List | Glossary Off
Versions: 1 2 3 4 5 6 7 8 9 10 11 12 13 14 15 16 17 18 19 20 21 22 23 24 25 26 27 28 29 30 31 32 33 34 35 36 37 38 39 40 41 42 43 44 45 46 47 48 49 50

000
ASUS43 KOAX 202202
RWRNE

WEATHER ROUNDUP FOR NEBRASKA
NATIONAL WEATHER SERVICE OMAHA NE
500 PM CDT WED AUG 20 2014

NOTES: SATELLITE DATA IS BEING USED TO AUGMENT CLOUD COVER ABOVE
       12000 FEET.
       "FAIR" INDICATES FEW OR NO CLOUDS BELOW 12,000 FEET WITH NO
       SIGNIFICANT WEATHER AND/OR OBSTRUCTIONS TO VISIBILITY.

  * THESE STATIONS DO NOT REPORT WEATHER SUCH AS RAIN...SNOW OR FOG.

NEZ001>004-019>022-054>056-202300-
NEBRASKA PANHANDLE

CITY           SKY/WX    TMP DP  RH WIND       PRES   REMARKS
SCOTTSBLUFF    MOSUNNY   92  48  22 W15       29.81F
ALLIANCE       MOSUNNY   93  48  21 W17G28    29.80S
CHADRON        MOSUNNY   92  49  22 W13G21    29.73S
KIMBALL        PTSUNNY   85  45  25 W12G21    29.87F
SIDNEY         PTSUNNY   89  47  23 NW13      29.85F THUNDER
$$

NEZ057>060-069>072-079>082-202300-
SOUTHWEST NEBRASKA

CITY           SKY/WX    TMP DP  RH WIND       PRES   REMARKS
NORTH PLATTE   SUNNY     91  68  46 W8        29.75F HX  95
IMPERIAL       SUNNY     91  56  30 NW6       29.79F
LEXINGTON      MOSUNNY   92  70  49 SE14      29.73S HX  97
MCCOOK         PTSUNNY   97  60  29 S8        29.73F HX  97
OGALLALA       SUNNY     90  52  26 CALM      29.77F
$$

NEZ005>010-023>029-035>040-094-202300-
NORTH CENTRAL NEBRASKA

CITY           SKY/WX    TMP DP  RH WIND       PRES   REMARKS
VALENTINE      SUNNY     92  58  31 S13       29.72F HX  91
AINSWORTH      MOSUNNY   86  66  51 S14       29.75R
BROKEN BOW     MOSUNNY   93  69  45 S17G26    29.74F HX  98
O`NEILL        MOSUNNY   86  73  64 S15G22    29.75R HX  92
ORD            MOSUNNY   89  71  55 S14G26    29.73S HX  95
THEDFORD       SUNNY     88  65  46 SW7       29.77F HX  90
$$

NEZ041-046>049-061>064-073>077-083>087-202300-
SOUTH CENTRAL NEBRASKA

CITY           SKY/WX    TMP DP  RH WIND       PRES   REMARKS
GRAND ISLAND   MOSUNNY   90  73  57 SE17G24   29.75F HX  98
AURORA         SUNNY     92  74  55 S16       29.76S HX 101
HASTINGS       MOSUNNY   90  67  46 S16G22    29.75S HX  93
HEBRON         SUNNY     92  65  40 S16       29.76S HX  95
HOLDREGE       MOSUNNY   92  67  43 S13       29.74S HX  96
KEARNEY *      MOSUNNY   90  72  55 SE13      29.75S HX  96
$$

NEZ011>018-030>034-042>045-202300-
NORTHEAST NEBRASKA

CITY           SKY/WX    TMP DP  RH WIND       PRES   REMARKS
NORFOLK        PTSUNNY   89  72  56 SE17G25   29.74F HX  96
ALBION         MOSUNNY   87  70  57 S20G26    29.75R HX  92
BLAIR          MOSUNNY   86  74  66 SE14G20   29.79S HX  94
COLUMBUS *     SUNNY     90  72  55 S10G20    29.76S HX  96
FREMONT        CLOUDY    91  73  54 SE18G24   29.77S HX  99
TEKAMAH        PTSUNNY   87  75  67 SE13      29.77F HX  96
WAYNE          CLOUDY    79  74  84 SE13      29.76F
$$

NEZ050>053-065>068-078-088>093-202300-
SOUTHEAST NEBRASKA

CITY           SKY/WX    TMP DP  RH WIND       PRES   REMARKS
LINCOLN        SUNNY     95  67  39 S17G26    29.76F HX  99
OMAHA EPPLEY   PTSUNNY   89  73  59 SE18      29.79S HX  97
BEATRICE       SUNNY     94  70  45 S20       29.77F HX 100
FALLS CITY     MOSUNNY   92  72  51 SE13G22   29.80S HX  99
NEBRASKA CITY  SUNNY     89  71  54 SE15G23   29.80S HX  95
PLATTSMOUTH    MOSUNNY   90  73  57 SE18      29.79F HX  98
$$

NEZ044-045-051>053-067-202300-
OMAHA AREA

CITY           SKY/WX    TMP DP  RH WIND       PRES   REMARKS
OMAHA EPPLEY   PTSUNNY   89  73  59 SE18      29.79S HX  97
BLAIR          MOSUNNY   86  74  66 SE14G20   29.79S HX  94
FREMONT        CLOUDY    91  73  54 SE18G24   29.77S HX  99
MILLARD        MOSUNNY   90  76  62 SE16G22   29.78S HX 101
OFFUTT AFB     MOSUNNY   90  80  72 SE16G25   29.79S HX 107
PLATTSMOUTH    MOSUNNY   90  73  57 SE18      29.79F HX  98
WAHOO          FAIR      94  64  37 S15       29.77S HX  95
$$


USA.gov is the U.S. government's official web portal to all federal, state and local government web resources and services.